Location: Unspecified
(0.0000°N, 0.0000°E)
Time: 13:58:43
(UTC+00:00)

Altair - Pass Details

Date: 30 October 2021
Orbit: 1502 x 1682 km, 47.2° (Epoch: 26 November)

Event Time Altitude Azimuth Distance (km) Brightness Sun altitude
Rises 19:26:08 0° 187° (S) 4,733 10.4 -24.8°
Reaches altitude 10° 19:31:40 10° 162° (SSE) 3,710 9.5 -26.1°
Enters shadow 19:35:37 13° 136° (SE) 3,428 9.1 -27.1°
Maximum altitude 19:35:40 13° 136° (SE) 3,428 - -27.1°
Drops below altitude 10° 19:39:37 10° 109° (ESE) 3,666 - -28.0°
Sets 19:44:55 0° 84° (E) 4,631 - -29.3°
